GFSNIL_prec_precacc12_114.txt.gz
Total_Precipitation_Accumulation
0.01 0.01 0.01 0.01 0.01 0.03 0.03 0.02 0.08 0.20 0.21 0.14 0.15 0.18 0.11 0.05 0.03 0.09 0.14 0.10 0.08 0.05
0.04 0.04 0.03 0.03 0.02 0.02 0.05 0.08 0.19 0.27 0.23 0.18 0.21 0.18 0.09 0.05 0.09 0.07 0.17 0.27 0.25 0.15
0.11 0.12 0.09 0.07 0.06 0.07 0.07 0.13 0.24 0.27 0.28 0.29 0.29 0.25 0.12 0.10 0.11 0.14 0.11 0.19 0.45 0.43
0.23 0.44 0.43 0.34 0.28 0.27 0.19 0.20 0.24 0.27 0.34 0.25 0.19 0.19 0.11 0.10 0.08 0.17 0.16 0.08 0.10 0.46
0.37 0.45 0.51 0.54 0.46 0.48 0.34 0.39 0.40 0.33 0.33 0.30 0.33 0.16 0.07 0.08 0.09 0.09 0.13 0.05 0.05 0.13
0.41 0.47 0.40 0.51 0.85 0.78 0.63 0.54 0.57 0.54 0.48 0.29 0.28 0.19 0.09 0.06 0.04 0.05 0.06 0.06 0.13 0.08
0.41 0.58 0.58 0.43 0.50 0.76 0.92 0.80 0.72 0.64 0.66 0.68 0.47 0.23 0.21 0.11 0.06 0.05 0.07 0.11 0.10 0.05
0.45 0.55 0.76 0.60 0.55 0.68 0.87 1.10 0.78 0.57 0.43 0.38 0.40 0.28 0.26 0.21 0.16 0.15 0.12 0.05 0.02 0.01
0.47 0.46 0.46 0.76 0.78 1.02 0.70 0.67 0.77 0.52 0.33 0.27 0.22 0.29 0.28 0.29 0.22 0.19 0.14 0.06 0.02 0.01
0.53 0.63 0.60 0.46 0.74 1.06 1.23 0.96 0.77 0.91 0.72 0.33 0.34 0.49 0.46 0.31 0.15 0.12 0.12 0.07 0.02 0.01
0.18 0.33 0.50 0.73 0.72 0.71 0.97 1.14 1.07 0.79 0.89 1.04 0.63 0.60 0.55 0.37 0.16 0.15 0.11 0.11 0.10 0.05
0.18 0.21 0.21 0.55 1.11 0.94 0.83 0.91 0.97 1.03 0.74 0.83 1.10 1.10 0.96 0.83 0.38 0.23 0.16 0.13 0.11 0.10
0.24 0.26 0.45 0.49 0.75 1.28 1.18 1.01 0.90 0.84 0.97 0.95 0.84 1.00 1.09 1.06 0.91 0.67 0.48 0.29 0.20 0.19
0.09 0.22 0.42 0.54 0.74 0.89 1.14 1.10 1.04 0.97 0.90 0.86 0.97 1.01 0.97 0.82 0.75 0.78 0.72 0.61 0.47 0.38

GFSNIL_prec_precacc12_117.txt.gz
Total_Precipitation_Accumulation
0.00 0.00 0.01 0.00 0.01 0.03 0.03 0.02 0.05 0.14 0.18 0.19 0.32 0.35 0.33 0.24 0.11 0.11 0.15 0.11 0.09 0.05
0.02 0.01 0.01 0.02 0.01 0.01 0.03 0.05 0.08 0.13 0.15 0.16 0.29 0.32 0.19 0.14 0.14 0.16 0.20 0.30 0.29 0.18
0.07 0.05 0.03 0.03 0.04 0.04 0.02 0.05 0.09 0.15 0.20 0.23 0.30 0.28 0.19 0.15 0.16 0.25 0.16 0.25 0.54 0.51
0.16 0.32 0.31 0.23 0.19 0.16 0.11 0.12 0.14 0.16 0.21 0.18 0.19 0.26 0.18 0.14 0.13 0.22 0.26 0.15 0.19 0.57
0.12 0.28 0.42 0.47 0.40 0.43 0.31 0.35 0.36 0.28 0.28 0.28 0.36 0.31 0.21 0.14 0.17 0.22 0.26 0.13 0.09 0.28
0.15 0.26 0.28 0.41 0.75 0.69 0.54 0.47 0.54 0.49 0.47 0.31 0.35 0.29 0.24 0.20 0.16 0.15 0.15 0.10 0.26 0.39
0.33 0.52 0.52 0.38 0.46 0.66 0.83 0.74 0.68 0.61 0.68 0.82 0.73 0.55 0.46 0.28 0.23 0.20 0.26 0.31 0.35 0.29
0.44 0.54 0.76 0.53 0.44 0.46 0.72 1.01 0.95 0.85 0.59 0.57 0.59 0.56 0.54 0.46 0.38 0.42 0.33 0.16 0.11 0.12
0.51 0.47 0.46 0.56 0.45 0.33 0.29 0.42 0.83 0.89 0.68 0.61 0.39 0.78 0.81 0.65 0.55 0.42 0.24 0.13 0.06 0.04
0.57 0.58 0.59 0.40 0.43 0.57 0.74 0.73 0.64 1.08 0.86 0.59 0.57 0.74 0.89 0.88 0.41 0.24 0.30 0.29 0.16 0.08
0.23 0.31 0.29 0.46 0.54 0.62 0.86 1.10 1.16 0.85 0.98 1.10 0.71 0.78 0.75 0.48 0.28 0.29 0.31 0.31 0.28 0.18
0.20 0.18 0.11 0.22 0.50 0.68 0.68 0.83 1.03 1.17 0.86 0.91 1.17 1.18 1.15 1.04 0.58 0.40 0.34 0.35 0.32 0.33
0.17 0.15 0.22 0.25 0.33 0.59 0.76 0.94 0.84 0.84 1.03 1.05 1.01 1.16 1.20 1.22 1.25 1.09 0.92 0.62 0.58 0.56
0.06 0.12 0.23 0.21 0.32 0.42 0.68 0.81 0.94 0.95 0.90 0.91 1.05 1.15 1.15 1.00 0.96 1.09 1.10 1.08 0.90 0.80

GFSNIL_prec_precacc12_123.txt.gz
Total_Precipitation_Accumulation
0.00 0.00 0.00 0.00 0.00 0.00 0.00 0.01 0.04 0.09 0.12 0.14 0.23 0.21 0.27 0.26 0.19 0.16 0.20 0.22 0.19 0.08
0.00 0.00 0.00 0.00 0.00 0.00 0.00 0.01 0.05 0.06 0.03 0.07 0.14 0.16 0.14 0.14 0.15 0.21 0.19 0.32 0.40 0.25
0.00 0.00 0.00 0.00 0.00 0.00 0.00 0.01 0.06 0.07 0.05 0.03 0.05 0.05 0.13 0.14 0.19 0.27 0.19 0.29 0.63 0.64
0.00 0.00 0.01 0.02 0.02 0.04 0.02 0.03 0.07 0.09 0.12 0.09 0.06 0.10 0.10 0.10 0.12 0.22 0.30 0.19 0.21 0.58
0.01 0.01 0.01 0.01 0.03 0.09 0.10 0.13 0.15 0.16 0.15 0.14 0.22 0.23 0.17 0.11 0.16 0.23 0.28 0.16 0.14 0.28
0.07 0.05 0.04 0.04 0.05 0.22 0.23 0.21 0.28 0.29 0.30 0.16 0.18 0.18 0.19 0.18 0.16 0.20 0.19 0.16 0.32 0.42
0.08 0.13 0.16 0.18 0.20 0.25 0.51 0.44 0.36 0.33 0.47 0.58 0.49 0.36 0.31 0.29 0.27 0.30 0.41 0.46 0.45 0.43
0.21 0.27 0.26 0.26 0.40 0.43 0.53 0.74 0.69 0.59 0.40 0.40 0.43 0.39 0.38 0.46 0.44 0.51 0.61 0.52 0.41 0.36
0.22 0.29 0.42 0.38 0.32 0.32 0.26 0.38 0.48 0.66 0.56 0.48 0.31 0.68 0.73 0.70 0.71 0.62 0.45 0.36 0.26 0.20
0.34 0.31 0.39 0.31 0.25 0.31 0.38 0.36 0.32 0.50 0.51 0.54 0.65 0.72 1.04 1.08 0.90 0.77 0.68 0.55 0.53 0.32
0.30 0.35 0.31 0.27 0.36 0.46 0.57 0.54 0.55 0.43 0.54 0.39 0.62 1.16 1.03 0.80 0.70 0.78 0.80 0.84 0.66 0.61
0.25 0.23 0.17 0.20 0.22 0.38 0.40 0.46 0.60 0.65 0.57 0.58 0.83 0.83 0.95 1.14 0.73 0.65 0.60 0.62 0.63 0.75
0.12 0.10 0.14 0.14 0.15 0.18 0.20 0.29 0.30 0.39 0.61 0.74 0.90 0.99 0.90 1.06 1.51 1.42 1.38 1.00 0.96 0.96
0.03 0.05 0.09 0.07 0.07 0.08 0.10 0.08 0.15 0.25 0.37 0.49 0.73 0.96 0.99 0.84 0.92 1.30 1.41 1.52 1.51 1.53

GFSNIL_prec_precacc12_129.txt.gz
Total_Precipitation_Accumulation
0.00 0.00 0.00 0.00 0.00 0.00 0.00 0.00 0.00 0.00 0.00 0.00 0.00 0.00 0.01 0.03 0.10 0.11 0.08 0.12 0.12 0.07
0.00 0.00 0.00 0.00 0.00 0.00 0.00 0.00 0.00 0.00 0.00 0.00 0.00 0.00 0.01 0.01 0.03 0.07 0.05 0.07 0.14 0.09
0.00 0.00 0.00 0.00 0.00 0.00 0.00 0.00 0.00 0.00 0.00 0.00 0.00 0.00 0.00 0.02 0.04 0.05 0.06 0.07 0.12 0.15
0.00 0.00 0.00 0.00 0.00 0.01 0.00 0.00 0.00 0.00 0.00 0.00 0.00 0.00 0.00 0.00 0.01 0.03 0.06 0.06 0.04 0.04
0.00 0.00 0.00 0.01 0.00 0.00 0.01 0.00 0.01 0.01 0.01 0.01 0.01 0.00 0.01 0.01 0.02 0.03 0.03 0.05 0.08 0.03
0.01 0.01 0.01 0.01 0.01 0.01 0.01 0.01 0.01 0.00 0.01 0.01 0.01 0.01 0.01 0.02 0.03 0.08 0.08 0.07 0.07 0.05
0.02 0.03 0.03 0.02 0.02 0.01 0.01 0.00 0.00 0.01 0.01 0.01 0.02 0.02 0.02 0.05 0.07 0.11 0.16 0.17 0.11 0.14
0.07 0.08 0.08 0.09 0.09 0.08 0.05 0.03 0.03 0.03 0.04 0.04 0.03 0.06 0.06 0.12 0.12 0.14 0.31 0.40 0.33 0.28
0.13 0.21 0.25 0.25 0.23 0.16 0.09 0.12 0.13 0.14 0.12 0.12 0.15 0.19 0.17 0.22 0.27 0.29 0.30 0.33 0.26 0.24
0.21 0.21 0.23 0.22 0.15 0.14 0.18 0.18 0.21 0.33 0.44 0.42 0.60 0.55 0.50 0.46 0.71 0.73 0.63 0.49 0.53 0.36
0.16 0.20 0.21 0.16 0.16 0.22 0.29 0.25 0.28 0.36 0.58 0.46 0.72 1.13 0.93 0.78 0.90 0.92 0.88 1.04 0.80 0.71
0.09 0.11 0.11 0.13 0.15 0.19 0.20 0.20 0.26 0.30 0.31 0.45 0.69 0.61 0.69 0.81 0.78 0.81 0.70 0.73 0.80 0.78
0.00 0.01 0.02 0.03 0.05 0.06 0.08 0.11 0.10 0.12 0.17 0.21 0.42 0.39 0.32 0.46 0.80 0.82 0.87 0.68 0.59 0.67
0.00 0.00 0.00 0.00 0.00 0.00 0.00 0.00 0.00 0.00 0.01 0.02 0.08 0.14 0.14 0.13 0.26 0.53 0.56 0.65 0.78 1.02

GFSNIL_prec_precacc12_132.txt.gz
Total_Precipitation_Accumulation
0.00 0.00 0.00 0.00 0.00 0.00 0.00 0.00 0.00 0.00 0.00 0.00 0.00 0.00 0.00 0.00 0.00 0.01 0.02 0.03 0.05 0.05
0.00 0.00 0.00 0.00 0.00 0.00 0.00 0.00 0.00 0.00 0.00 0.00 0.00 0.00 0.01 0.01 0.01 0.01 0.01 0.03 0.04 0.03
0.00 0.00 0.00 0.00 0.00 0.00 0.00 0.00 0.00 0.00 0.00 0.00 0.00 0.00 0.00 0.00 0.01 0.01 0.01 0.02 0.03 0.04
0.00 0.00 0.00 0.00 0.00 0.00 0.00 0.00 0.00 0.00 0.00 0.00 0.00 0.00 0.00 0.00 0.01 0.01 0.01 0.02 0.02 0.02
0.00 0.00 0.01 0.01 0.00 0.00 0.01 0.00 0.00 0.00 0.01 0.00 0.00 0.00 0.00 0.00 0.01 0.00 0.00 0.00 0.02 0.02
0.01 0.01 0.01 0.01 0.01 0.01 0.01 0.01 0.00 0.01 0.01 0.01 0.01 0.01 0.01 0.01 0.01 0.00 0.00 0.01 0.02 0.03
0.01 0.02 0.02 0.02 0.02 0.02 0.01 0.01 0.01 0.01 0.02 0.02 0.03 0.02 0.02 0.01 0.01 0.01 0.01 0.02 0.03 0.04
0.02 0.03 0.03 0.04 0.06 0.07 0.04 0.02 0.02 0.02 0.02 0.04 0.05 0.08 0.07 0.04 0.03 0.04 0.05 0.13 0.16 0.19
0.05 0.07 0.10 0.14 0.17 0.13 0.07 0.08 0.09 0.10 0.11 0.11 0.16 0.21 0.19 0.16 0.13 0.16 0.17 0.17 0.15 0.18
0.05 0.05 0.08 0.10 0.07 0.07 0.10 0.12 0.16 0.21 0.27 0.32 0.41 0.48 0.48 0.46 0.36 0.39 0.47 0.41 0.30 0.24
0.03 0.05 0.07 0.07 0.08 0.10 0.14 0.14 0.16 0.21 0.30 0.34 0.52 0.69 0.80 0.82 0.80 0.71 0.70 0.93 0.79 0.75
0.01 0.01 0.02 0.03 0.05 0.08 0.08 0.09 0.15 0.16 0.18 0.30 0.49 0.50 0.49 0.53 0.66 0.69 0.71 0.84 0.95 0.90
0.00 0.00 0.00 0.00 0.00 0.00 0.01 0.03 0.05 0.06 0.09 0.13 0.25 0.27 0.22 0.26 0.38 0.52 0.73 0.60 0.49 0.56
0.00 0.00 0.00 0.00 0.00 0.00 0.00 0.00 0.00 0.00 0.00 0.01 0.03 0.05 0.05 0.04 0.13 0.24 0.28 0.33 0.42 0.62